Regional Weather Roundup
Issued by NWS Albany, NY

Home | Current Version | Previous Version | Graphics & Text | Print | Product List | Glossary Off
Versions: 1 2 3 4 5 6 7 8 9 10 11 12 13 14 15 16 17 18 19 20 21 22 23 24 25 26 27

000
ASUS41 KALY 281310
RWRALY

NEW YORK STATE HOURLY WEATHER ROUNDUP
NATIONAL WEATHER SERVICE ALBANY NY
900 AM EDT SAT MAY 28 2016

NOTE: "FAIR" INDICATES FEW OR NO CLOUDS BELOW 12,000 FEET WITH NO
SIGNIFICANT WEATHER AND/OR NO OBSTRUCTIONS TO VISIBILITY.

NYZ032-033-038>043-046>054-057>066-NYZ062>081-082-084-281400-
EAST


CITY           SKY/WX    TMP DP  RH WIND       PRES   REMARKS
ALBANY         MOSUNNY   77  67  71 S5        30.10R
GLENS FALLS    SUNNY     78  66  66 CALM      30.09S
POUGHKEEPSIE   SUNNY     79  68  69 SW7       30.09S
NEWBURGH       SUNNY     77  70  78 MISG      30.12S
MONTGOMERY     SUNNY     79  70  74 SW8       30.10S
WHITE PLAINS   SUNNY     77  66  68 VRB6      30.12R
ISLIP          MOSUNNY   73  61  65 SW8       30.12F
NEW YORK CITY  PTSUNNY   78  66  66 SW7       30.12R
CENTRAL PARK   SUNNY     76  60  57 VRB6      30.15R
$$

NYZ005>009-017-018-044>046-055-056-281400-
CENTRAL


CITY           SKY/WX    TMP DP  RH WIND       PRES   REMARKS
FULTON         MOSUNNY   77  68  73 S3        30.10R
SYRACUSE       PTSUNNY   77  66  68 CALM      30.09S
ROME           SUNNY     74  66  76 CALM      30.12R
ELMIRA         MOSUNNY   74  64  71 CALM      30.13R
BINGHAMTON     SUNNY     72  65  78 W3        30.16R
MONTICELLO     SUNNY     73  66  78 CALM      30.18R
$$

NYZ026>034-041>043-087-281400-
NORTH


CITY           SKY/WX    TMP DP  RH WIND       PRES   REMARKS
WATERTOWN      SUNNY     76  68  76 W7        30.08S
FORT DRUM      NOT AVBL
MASSENA        CLOUDY    75  65  70 CALM      30.08R
SARANAC LAKE   SUNNY     72  62  71 SW8       30.13S
PLATTSBURGH    MOSUNNY   75  66  73 NE6       30.08R
$$

NYZ001>004-010>016-019>021-085-281400-
WEST


CITY           SKY/WX    TMP DP  RH WIND       PRES   REMARKS
NIAGARA FALLS  PTSUNNY   78  64  61 S6        30.07S
BUFFALO        PTSUNNY   78  64  61 S9        30.08S
DUNKIRK        SUNNY     79  65  62 S9        30.09R
JAMESTOWN      SUNNY     72  63  73 SW5       30.15S
WELLSVILLE     MOSUNNY   73  65  75 CALM      30.19S
ROCHESTER      MOSUNNY   77  65  66 SW7       30.09S
PENN YAN       MOSUNNY   76  65  68 SW8       30.12S
$$

             KEY
       WCI = WIND CHILL INDEX
       VSB = VISIBILITY
       HX  = HEAT INDEX
$$




USA.gov is the U.S. government's official web portal to all federal, state and local government web resources and services.